Regional Weather Roundup
Issued by NWS

Home | Current Version | Previous Version | Text Only | Print | Product List | Glossary Off
Versions: 1 2 3 4 5 6 7 8 9 10 11 12 13 14 15 16 17 18 19 20 21 22 23 24 25 26 27 28 29 30 31 32 33 34 35 36 37 38 39 40 41 42 43 44 45 46 47 48 49 50

000
ASUS43 KMPX 211701
RWRMN
WEATHER ROUNDUP FOR MINNESOTA
NATIONAL WEATHER SERVICE TWIN CITIES/CHANHASSEN MN
1100 AM CST TUE FEB 21 2017


NOTE: "FAIR" INDICATES FEW OR NO CLOUDS BELOW 12,000 FEET WITH NO
SIGNIFICANT WEATHER AND/OR OBSTRUCTIONS TO VISIBILITY. N/A MEANS
CURRENT SKY AND/OR WEATHER CONDITIONS ARE NOT AVAILABLE.

MNZ060>063-068>070-211800-
   Twin Cities Metro

CITY           SKY/WX    TMP DP  RH WIND       PRES   REMARKS
TWIN CITIES    MOSUNNY   46  38  73 VRB5      29.86F
ST PAUL        CLOUDY    38  38 100 SE9       29.88F FOG
CRYSTAL        SUNNY     45  38  76 SE9       29.84F
BLAINE         MOSUNNY   43  43 100 S7        29.85F
LAKEVILLE      SUNNY     46  41  81 S8        29.86F
EDEN PRAIRIE   SUNNY     49  40  71 S12       29.84F
SOUTH ST PAUL  FOG       38  38 100 SE3       29.87F VSB 1
LAKE ELMO      CLOUDY    39  39 100 S7        29.89F FOG
$$
MNZ001>005-007-008-013>017-022>024-027-028-211800-
   Northwest Minnesota

CITY           SKY/WX    TMP DP  RH WIND       PRES   REMARKS
BEMIDJI        SUNNY     38  35  90 E8        29.72F
HALLOCK        FOG       34  32  93 CALM      29.71R VSB 1/4
ROSEAU         FOG       32  28  86 E5        29.71F VSB<1/4 WCI  27
WARROAD        FOG       34  28  80 E5        29.72F VSB 1/2 WCI  30
THIEF RVR FALL SUNNY     38  35  89 E8        29.69F
CROOKSTON      SUNNY     39  39 100 SE3       29.68F
FOSSTON        SUNNY     46  45  93 E3        29.68F
DETROIT LAKES  MOSUNNY   43  36  75 S8        29.70S
MOORHEAD       CLOUDY    39  34  81 S10       29.69S
PARK RAPIDS    MOSUNNY   41  32  70 SE7       29.70F
MAHNOMEN       FAIR      44  36  72 S9        29.67F
$$
MNZ006-009>011-018-025>026-211800-
   North Central Minnesota

CITY           SKY/WX    TMP DP  RH WIND       PRES   REMARKS
BAUDETTE       CLOUDY    34  31  88 SE6       29.72F WCI  29
FLAG ISLAND    CLOUDY    30  30 100 S7        29.71F FOG     WCI  23
INTL FALLS     CLOUDY    35  32  88 VRB3      29.74F
WASKISH        CLOUDY    37  36  93 SE5       29.73F FOG
BIG FORK       CLOUDY    36  34  93 CALM      29.76S FOG
LONGVILLE      MOSUNNY   39  37  93 SE8       29.75F
GRAND RAPIDS     N/A     35  33  92 S8        29.80  WCI  29
CRANE LAKE     CLOUDY    34  32  93 S3        29.78F
ORR            CLOUDY    36  30  80 SE3       29.74F
COOK           CLOUDY    36  34  93 S3        29.78S
WALKER         FAIR      41  34  75 E5        29.73F
$$
MNZ012-019>021-037-211800-
   Northeast Minnesota

CITY           SKY/WX    TMP DP  RH WIND       PRES   REMARKS
DULUTH         FOG       36  35  96 W8        29.81F VSB 1
ELY            CLOUDY    36  34  93 SW6       29.78S
HIBBING        CLOUDY    34  34 100 S3        29.79S FOG
EVELETH        CLOUDY    37  36  94 SW3       29.80F FOG
DULUTH HARBOR  MOSUNNY   39  36  87 CALM      29.84F
TWO HARBORS    SUNNY     45  37  76 SW6       29.79S
SILVER BAY     MOSUNNY   45  36  70 SW5       29.78R
GRAND MARAIS     N/A     37  35  92 W8        29.78R
G MARAIS ARPRT MOSUNNY   36  27  69 W10G16    29.75R
$$
MNZ029>031-032-039>041-046>048-054>057-064-211800-
   West Central Minnesota

CITY           SKY/WX    TMP DP  RH WIND       PRES   REMARKS
FERGUS FALLS   MOSUNNY   45  37  76 S12       29.73F
WHEATON        CLOUDY    48  37  66 S9        29.71F
MORRIS         SUNNY     45  39  81 S10       29.72F
ALEXANDRIA     SUNNY     47  37  68 S16       29.73F
ELBOW LAKE     FAIR      44  39  81 S10       29.72S
WADENA         MOSUNNY   43  36  75 SE13      29.70F
GLENWOOD       SUNNY     48  39  71 S17G23    29.74S
APPLETON       SUNNY     52  39  62 SW6       29.73S
BENSON         SUNNY     48  37  66 SW9       29.76R
ORTONVILLE     SUNNY     52  37  58 CALM      29.72S
WILLMAR        FAIR      48  43  81 S3        29.77F
$$
MNZ033>034-036-042>043-049>051-058-059-211800-
   Central Minnesota

CITY           SKY/WX    TMP DP  RH WIND       PRES   REMARKS
ST CLOUD       SUNNY     41  39  93 SE12      29.78F
SAUK CENTRE    FAIR      48  39  73 S13       29.75R
PAYNESVILLE    SUNNY     49  38  66 S15G22    29.77F
AITKIN         MOSUNNY   39  34  81 SE6       29.78F
PINE RIVER     MOSUNNY   37  37 100 SE12      29.79F
BRAINERD       SUNNY     41  37  86 SE6       29.77F
STAPLES        MOSUNNY   43  36  75 S9        29.74F
LONG PRAIRIE   FAIR      46  37  71 SE13G18   29.75F
LITTLE FALLS   SUNNY     39  37  93 SE9       29.77F
LITCHFIELD     SUNNY     52  43  71 S7        29.78F
BUFFALO        SUNNY     49  36  61 SE8       29.82F
MAPLE LAKE     SUNNY     49  40  70 S8        29.81F
HUTCHINSON     SUNNY     51  43  75 S7        29.81F
$$
MNZ037-044-045-052-053-211800-
   East Central Minnesota

CITY           SKY/WX    TMP DP  RH WIND       PRES   REMARKS
PRINCETON      SUNNY     43  43 100 SE8       29.82F
MORA           FOG       34  32  93 SE6       29.85F VSB 1/2 WCI  29
CAMBRIDGE      CLOUDY    39  37  93 SE6       29.83F FOG
RUSH CITY      FOG       36  34  93 SE8       29.86F VSB 1/2
MOOSE LAKE     CLOUDY    34  34 100 S7        29.82F FOG     WCI  28
HINCKLEY       FOG       36  36 100 SE5       29.85F VSB 1/2
CLOQUET        CLOUDY    36  36 100 S7        29.82S FOG
MCGREGOR       CLOUDY    37  37 100 SE7       29.80F
$$
MNZ071>073-080-081-089-090-097-098-211800-
   Southwest Minnesota

CITY           SKY/WX    TMP DP  RH WIND       PRES   REMARKS
MONTEVIDEO     SUNNY     52  52 100 W12G20    29.76S
GRANITE FALLS  SUNNY     54  42  64 S14       29.77S
CANBY          SUNNY     53  37  54 SW18G26   29.74F
MARSHALL       SUNNY     54  38  54 SW25      29.75F
REDWOOD FALLS  SUNNY     55  41  59 S24G32    29.76F
OLIVIA         SUNNY     50  41  71 S13       29.76F
PIPESTONE      MOSUNNY   52  37  58 SW15      29.79F
WINDOM         SUNNY     55  41  58 S23G29    29.81F
WORTHINGTON    SUNNY     52  40  63 S22G30    29.82F
JACKSON        SUNNY     50  37  62 SW18G25   29.86F
TRACY          SUNNY     54  41  62 SW23G30   29.79F
SLAYTON        SUNNY     49  40  70 SW21G26   29.81F
$$
MNZ065>067-074>077-082>085-091>093-211800-
   South Central Minnesota

CITY           SKY/WX    TMP DP  RH WIND       PRES   REMARKS
MANKATO          N/A     49  42  77 S16       29.85F
NEW ULM        SUNNY     52  43  71 S14       29.80F
ST JAMES       SUNNY     54  43  66 S14       29.84F
FAIRMONT       SUNNY     53  44  71 S16       29.86F
GLENCOE        SUNNY     50  45  82 S9G17     29.82F
FARIBAULT      SUNNY     48  43  81 S13       29.87F
OWATONNA       SUNNY     50  41  71 S13       29.88F
WASECA         SUNNY     50  45  81 S16       29.89F
ALBERT LEA     SUNNY     52  39  62 S12       29.90F
$$
MNZ078>079-086>088-094>096-211800-
   Southeast Minnesota

CITY           SKY/WX    TMP DP  RH WIND       PRES   REMARKS
ROCHESTER      SUNNY     48  44  86 S9        29.91F
RED WING       FOG       37  36  93 E5        29.90F VSB 1/2
STANTON        SUNNY     50  41  71 S8        29.86F
WINONA         SUNNY     46  39  76 CALM      29.94S
AUSTIN         SUNNY     46  45  93 SW9       29.92S
PRESTON        SUNNY     46  40  81 SW8       29.93S
$$
ABBREVIATIONS USED IN REMARKS
   TC - TEMPERATURES IN CELSIUS
  WCI - WIND CHILL INDEX
   HX - HEAT INDEX
  VSB - VISIBILITY
$$




USA.gov is the U.S. government's official web portal to all federal, state and local government web resources and services.